This is the latest recevied weather packets stored in our database for station/object LU4HH-15. If no packets are shown the sender has not sent any weather packets the latest 10 day(s).
| Time | Temp. | Humidity | Pressure | Rain* | Wind** | Luminosity | Snow |
|---|---|---|---|---|---|---|---|
| 1788029572 | 17.22° C | 53% | 1021.6 hPa | - | - | - | - |
| 1788028671 | 17.22° C | 52% | 1021.5 hPa | - | - | - | - |
| 1788027770 | 17.78° C | 52% | 1021.6 hPa | - | - | - | - |
| 1788026869 | 17.78° C | 52% | 1021.8 hPa | - | - | - | - |
| 1788025968 | 17.78° C | 52% | 1021.9 hPa | - | - | - | - |
| 1788025066 | 17.78° C | 52% | 1022 hPa | - | - | - | - |
| 1788024166 | 17.78° C | 53% | 1022.2 hPa | - | - | - | - |
| 1788023265 | 17.22° C | 53% | 1022.2 hPa | - | - | - | - |
| 1788022364 | 17.22° C | 54% | 1022.4 hPa | - | - | - | - |
| 1788021462 | 17.22° C | 54% | 1022.5 hPa | - | - | - | - |
| 1788020561 | 17.22° C | 54% | 1022.6 hPa | - | - | - | - |
| 1788019661 | 17.22° C | 54% | 1022.6 hPa | - | - | - | - |
| 1788018759 | 17.22° C | 54% | 1022.8 hPa | - | - | - | - |
| 1788017858 | 16.67° C | 53% | 1022.8 hPa | - | - | - | - |
| 1788016957 | 16.67° C | 54% | 1022.9 hPa | - | - | - | - |
| 1788016082 | 16.11° C | 55% | 1022.9 hPa | - | - | - | - |
| 1788015181 | 16.11° C | 55% | 1023 hPa | - | - | - | - |
| 1788014280 | 15.56° C | 56% | 1022.9 hPa | - | - | - | - |
| 1788013379 | 15.56° C | 56% | 1022.9 hPa | - | - | - | - |
| 1788012478 | 15° C | 56% | 1022.8 hPa | - | - | - | - |
| 1788011577 | 15° C | 57% | 1022.9 hPa | - | - | - | - |
| 1788010674 | 15° C | 57% | 1023 hPa | - | - | - | - |
| 1788009774 | 15° C | 57% | 1022.8 hPa | - | - | - | - |
| 1788008873 | 14.44° C | 57% | 1022.8 hPa | - | - | - | - |
| 1788007972 | 14.44° C | 58% | 1022.9 hPa | - | - | - | - |
* Rain since midnight (hover to see other rain measurements)
** Current wind speed in m/s (hover to see current wind gust speed)